Starlink 31381

operational
NORAD ID: 59469 Int'l Des: 2024-068 Owner: SPXS Country: US Constellation: starlink
LEOCIRCULAR

关于 Starlink 31381

正在加载描述...

实时位置

正在加载3D地球...

即将过境

高度历史

Altitude vs Time

uPlot chart will show altitude changes over time

两行轨道根数

1 59469U 24068Q 25258.40223046 .00000633 00000-0 32516-4 0 9999
2 59469 43.0014 301.0848 0001449 272.3585 87.7101 15.27575812 81759
Epoch: Sep 15, 2025 • Age: 20 hours

当前状态

高度 488.8 km
速度 7.62 km/s
星下点 -25.36°S, 69.81°E
发射日期 Apr 10, 2024
运行时间 1.4 years
类型 internet

技术详情

分类 Payload
质量 730.00 kg
干质量 700.00 kg
总质量 730.00 kg
长度 0.30 m
直径 4.10 m
跨度 29.00 m
形状 Box + pan
制造商 SPXS
平台类型 Starlink V2M
阶段状态 In Orbit
所有者/国家 SPXS/US

大型星座

Loading constellations...